STARLINK-32456, 62041

Orbit data source: Space-Track

STARLINK-32456, 62041 is a payload satellite owned by SpaceX/Seattle (US) in LEO that was launched on Thu, 21 Nov 2024 UTC via an FALCON 9 launch vehicle from the Air Force Eastern Test Range (AFETR). Payload-class satellites include a variety of spacecraft equipped with specific instruments for various scientific and technological missions. These include communications satellites like Starlink; space stations such as the ISS; scientific satellites like the Hubble; Earth observation satellites from companies like Planet Labs, Umbra, and HawkEye 360; GPS; miniature CubeSats for education and research; and military/defense satellites.

Loading next visibility...
Identifier
62041, 2024-216K
Orbit
LEO
Country
Flag of USUS
Related business
Manufacturer
SpaceX/Seattle
Mission
Operational Commercial Communications
Bus & Motor
STARLINK V2M, Unknown motor
Mass
730 kg wet, ~700 kg dry
Launch date (UTC)
2024-11-21 (1 year ago)
Launch vehicle
FALCON 9
Launch site
Air Force Eastern Test Range (AFETR)
Object type
Payload
Rocket body
Debris
Shape & HBR
Box + 2 Pan, 17.7 m
Radar Cross Section
33.884 m², Large (>1 m²)

Expand to show TLE details & history
Last TLE update: 11 hours ago

TLE from 11 hours ago
0 STARLINK-32456
1 62041U 24216K   25343.46239366  .00041898  00000-0  15220-2 0  9996
2 62041  42.9989  46.1288 0001240 264.4343  95.6367 15.27610789 60073
Epoch: 2025-12-09T11:05Z
TLE epoch observation values (Epoch: 2025-12-09T11:05:50.812Z)
Latitude
-0.00002°
Longitude
161.22033°
Altitude
482.816 km
Speed
7.626 km/s
True Right ascension
03h 04m 30s
True Declination
0° 00' 00"
Sunlit
Object was in full shadow at epoch
Visualization orbit readout
Latitude
Unknown
Longitude
Unknown
Altitude
Unknown
Speed
Unknown
Apparent Right ascension
Unknown
Apparent Declination
Unknown
Sunlit
N/A
Visualization observer readout
Local Sidereal Time
19:54:38
Azimuth
Unknown
Elevation
Unknown
Doppler factor
Unknown
Orbital elements
Apogee altitude
485.753 km
Perigee altitude
484.051 km
Semi-major axis
6,863.039 km
Eccentricity
0.00012
Inclination
42.9989°
RAAN
46.1288°
Arg. of periapsis
264.4343°
True anomaly
95.65084°
Mean anomaly
95.6367°
Eccentric anomaly
95.64377°
Mean motion
3.81741 °/min
Orbital period
94.3 mins
BSTAR
0.001522
Loading maneuver chart data...
Computing Atmospheric mass density...
Loading historical data...
Loading historical data...
Loading historical data...
Loading historical data...
Loading historical data...
Loading historical data...
Loading historical data...

Documentation

Showing up to 5 results
|